SCP
0 0 0 0 0 0 0 0 0 0 0 1 1 2 2 2 2 2 2 2 3 3 3 3 2 2 2 2 2 3 4 5 5 5 4 4 3 2 1 1 1 2 2 2
0 0 0 0 0 0 0 0 0 0 0 1 1 1 2 2 2 2 2 2 3 3 3 2 2 2 2 2 2 3 4 4 5 5 4 4 3 2 1 1 1 2 2 2
0 0 0 0 0 0 0 0 0 0 0 1 1 1 1 1 2 2 2 2 3 3 3 2 2 1 1 1 2 2 3 4 4 4 4 3 2 2 1 1 1 2 2 2
0 0 0 0 0 0 0 0 0 0 0 0 0 0 1 1 1 2 2 2 2 3 2 2 2 1 1 1 1 2 2 3 3 4 4 4 3 2 2 2 2 2 2 2
0 0 0 0 0 0 0 0 0 0 0 0 0 0 0 1 1 1 1 1 2 2 2 2 2 2 2 2 1 1 2 2 3 4 4 4 3 2 2 2 2 2 1 1
0 0 0 0 0 0 0 0 0 0 0 0 0 0 0 1 1 1 1 1 1 1 2 2 2 3 3 2 1 1 2 2 2 3 3 3 2 2 1 2 2 1 1 1
0 0 0 0 0 0 0 0 0 0 0 0 0 0 0 0 1 1 1 1 1 1 1 1 2 3 3 2 1 1 1 2 2 2 2 1 1 1 1 1 1 1 0 0
0 0 0 0 0 0 0 0 0 0 0 0 0 0 0 0 1 1 1 1 1 1 1 1 1 1 1 1 1 1 1 1 1 1 1 1 0 0 1 1 0 0 0 0
0 0 0 0 0 0 0 0 0 0 0 0 0 0 0 0 0 1 1 1 1 1 1 1 1 1 1 1 0 0 0 0 0 0 0 0 0 0 0 0 0 0 0 0
0 0 0 0 0 0 0 0 0 0 0 0 0 0 0 0 0 0 0 0 0 1 1 1 1 1 1 0 0 0 0 0 0 0 0 0 0 0 0 0 0 0 0 0
0 0 0 0 0 0 0 0 0 0 0 0 0 0 0 0 0 0 0 0 0 0 0 0 0 0 0 0 0 0 0 0 0 0 0 0 0 0 0 0 0 0 0 0
0 0 0 0 0 0 0 0 0 0 0 0 0 0 0 0 0 0 0 0 0 0 0 0 0 0 0 0 0 0 0 0 0 0 0 0 0 0 0 0 0 0 0 0
0 0 0 0 0 0 0 0 0 0 0 0 0 0 0 0 0 0 0 0 0 0 0 0 0 0 0 0 0 0 0 0 0 0 0 0 0 0 0 0 0 0 0 0
0 0 0 0 0 0 0 0 0 0 0 0 0 0 0 0 0 0 0 0 0 0 0 0 0 0 0 0 0 0 0 0 0 0 0 0 0 0 0 0 0 0 0 0
0 0 0 0 0 0 0 0 0 0 0 0 0 0 0 0 0 0 0 0 0 0 0 0 0 0 0 0 0 0 0 0 0 0 0 0 0 0 0 0 0 0 0 0
0 0 0 0 0 0 0 0 0 0 0 0 0 0 0 0 0 0 0 0 0 0 0 0 0 0 0 0 0 0 0 0 0 0 0 0 0 0 0 0 0 0 0 0
0 0 0 0 0 0 0 0 0 0 0 0 0 0 0 0 0 0 0 0 0 0 0 0 0 0 0 0 0 0 0 0 0 0 0 0 0 0 0 0 0 0 0 0
0 0 0 0 0 0 0 0 0 0 0 0 0 0 0 0 0 0 0 0 0 0 0 0 0 0 0 0 0 0 0 0 0 0 0 0 0 0 0 0 0 0 0 0
0 0 0 0 0 0 0 0 0 0 0 0 0 0 0 0 0 0 0 0 0 0 0 0 0 0 0 0 0 0 0 0 0 0 0 0 0 0 0 0 0 0 0 0
0 0 0 0 0 0 0 0 0 0 0 0 0 0 0 0 0 0 0 0 0 0 0 0 0 0 0 0 0 0 0 0 0 0 0 0 0 0 0 0 0 0 0 0
0 0 0 0 0 0 0 0 0 0 0 0 0 0 0 0 0 0 0 0 0 0 0 0 0 0 0 0 0 0 0 0 0 0 0 0 0 0 0 0 0 0 0 0
0 0 0 0 0 0 0 0 0 0 0 0 0 0 0 0 0 0 0 0 0 0 0 0 0 0 0 0 0 0 0 0 0 0 0 0 0 0 0 0 0 0 0 -0
0 0 0 0 0 0 0 0 0 0 0 0 0 0 0 0 0 0 0 0 0 0 0 0 0 0 0 0 0 0 0 0 0 0 0 0 0 0 0 0 0 0 0 -0
0 0 0 0 0 0 0 0 0 0 0 0 0 0 0 0 0 0 0 0 0 0 0 0 0 0 0 0 0 0 0 0 0 0 0 0 0 0 0 0 0 0 0 -0
0 0 0 0 0 0 0 0 0 0 0 0 0 0 0 0 0 0 0 0 0 0 0 0 0 0 0 0 0 0 0 0 0 0 0 0 0 0 0 0 0 0 0 0
0 0 0 0 0 0 0 0 0 0 0 0 0 0 0 0 0 0 0 0 0 0 0 0 0 0 0 0 0 0 0 0 0 0 0 0 0 0 0 0 0 0 0 0
Wind_Speed
3 4 1 5 6 4 2 1 3 4 1 4 5 6 4 4 5 6 6 6 5 5 5 6 6 6 6 6 5 4 4 3 2 1 1 1 1 1 1 1 2 1 0 1
5 2 6 4 4 4 3 2 2 2 2 5 6 5 3 4 4 5 6 5 5 4 5 6 7 7 7 6 6 4 4 3 3 2 1 1 1 1 1 2 2 2 2 1
3 6 2 2 2 3 3 5 4 3 3 5 5 3 2 3 5 6 6 5 4 4 4 5 7 7 7 7 6 5 4 4 3 2 2 2 1 1 1 2 2 2 2 2
4 5 2 2 2 4 3 5 5 4 5 1 2 2 2 2 3 5 5 4 4 4 5 5 6 6 7 6 6 6 5 5 5 4 3 2 1 1 1 1 1 2 3 3
4 2 1 2 4 5 3 2 4 3 5 3 3 3 4 2 3 4 5 4 4 4 5 5 5 5 6 6 6 6 6 7 6 5 4 3 2 2 2 3 3 3 4 4
5 3 3 3 1 2 4 6 6 5 5 2 1 3 4 4 4 5 6 5 5 5 5 5 6 6 6 7 7 7 7 8 7 6 6 5 4 4 4 4 4 4 3 4
5 4 2 1 2 3 5 6 5 5 4 3 1 2 6 2 2 6 7 7 5 5 5 5 6 7 7 8 8 8 7 7 7 7 7 7 6 5 5 4 4 4 4 4
2 5 4 1 2 3 2 7 7 4 4 3 1 3 4 1 3 6 7 7 6 5 5 5 5 6 6 7 7 7 7 6 7 7 7 6 6 5 5 6 5 5 4 4
3 4 4 2 1 4 4 2 4 7 2 0 3 4 2 5 6 6 7 7 6 5 5 5 5 5 6 6 7 6 6 7 7 7 7 7 7 7 6 6 6 5 4 4
5 2 4 3 4 5 4 7 5 5 4 2 3 4 5 7 8 8 8 7 6 6 5 5 5 5 5 5 6 7 7 7 6 7 6 6 7 7 7 7 7 7 6 6
2 2 4 4 2 1 2 3 5 4 4 5 3 7 4 7 9 10 9 8 8 7 5 4 4 4 5 5 6 6 7 7 7 7 6 7 7 7 7 7 7 6 7 7
1 4 1 3 2 1 1 3 6 4 3 4 3 8 2 3 7 9 9 9 8 8 6 5 5 4 5 6 6 6 6 7 6 6 7 7 7 7 8 7 7 7 7 7
1 4 3 6 5 3 1 2 3 5 4 4 4 7 1 4 7 9 10 10 9 8 7 6 5 5 5 5 5 6 6 6 6 6 7 8 7 7 8 7 7 8 8 8
3 3 5 5 5 3 2 1 4 5 4 4 7 7 3 5 8 9 10 10 9 8 7 6 5 4 4 5 5 5 5 5 6 6 7 8 7 7 7 7 7 7 7 8
4 1 2 4 5 3 4 4 4 5 7 7 7 6 6 8 9 10 10 11 10 9 7 6 5 4 4 4 4 4 5 5 5 6 7 6 6 6 6 7 7 7 7 7
3 1 1 3 2 2 4 5 4 5 4 4 3 4 1 6 8 10 11 11 10 9 8 7 6 5 4 4 4 4 4 4 4 5 5 5 5 6 6 6 7 7 7 7
2 1 2 3 5 3 4 3 3 2 3 5 5 4 6 7 10 11 11 11 10 10 9 8 6 5 4 4 3 3 3 3 4 4 4 5 5 6 6 6 7 7 7 7
3 2 1 1 3 3 5 2 1 1 1 1 2 4 7 7 7 6 8 10 10 10 9 7 6 5 4 4 3 3 3 4 4 4 5 5 5 6 6 6 7 6 5 6
5 5 3 1 1 6 4 1 1 1 2 1 5 8 8 10 7 4 4 7 8 8 8 7 6 5 5 4 3 4 4 4 4 4 4 4 5 6 6 6 5 4 5 5
3 3 3 2 2 4 4 3 1 2 3 2 6 10 11 8 5 4 6 8 9 9 8 7 7 6 5 4 4 5 4 4 4 3 4 4 5 5 5 5 4 3 4 4
2 2 2 3 3 6 4 3 1 1 5 2 7 10 10 5 4 8 11 9 9 9 9 8 7 6 4 4 5 5 4 4 3 4 5 5 5 5 4 4 3 4 4 5
1 1 2 3 3 6 3 2 2 4 1 4 6 7 7 8 10 11 11 11 11 10 9 8 7 6 4 5 6 5 4 3 3 4 5 5 4 4 4 5 4 4 5 5
2 4 3 5 6 4 2 2 3 2 3 3 6 8 10 11 11 11 10 10 10 9 8 7 8 7 4 4 5 5 3 3 5 5 5 5 5 4 4 4 4 4 4 3
3 1 1 4 5 3 3 2 1 1 3 6 9 10 11 11 13 12 11 10 9 8 8 7 8 7 5 4 4 4 4 4 5 6 5 4 4 4 4 3 3 3 2 2
4 1 2 4 4 2 3 2 2 5 8 10 9 7 11 14 13 12 11 10 8 7 6 7 7 6 5 4 4 4 4 5 6 5 4 4 4 4 4 3 3 2 1 2
5 5 4 5 4 3 2 1 3 6 7 10 11 9 8 12 13 11 10 8 8 8 7 7 6 6 5 5 4 3 4 5 5 4 3 2 2 2 2 3 3 6 4 3
Wind_Direction
63 72 219 227 198 194 182 218 277 279 262 82 97 99 78 86 94 98 95 89 78 58 37 31 24 30 40 39 39 34 30 18 29 54 59 68 64 48 71 80 65 76 139 178
36 301 239 218 196 187 195 235 263 328 74 108 106 83 73 86 103 113 111 101 88 61 36 31 30 32 35 35 32 33 27 22 23 17 19 70 64 44 50 55 53 56 60 105
196 245 230 196 226 207 216 198 202 177 74 76 106 60 50 79 94 100 98 96 88 79 54 30 26 25 23 25 24 25 21 31 29 29 46 62 68 48 36 36 29 47 72 60
241 259 251 271 252 172 250 217 178 151 119 117 125 153 247 145 123 120 114 106 91 73 62 43 32 25 21 18 19 24 27 32 25 33 52 55 69 69 38 36 38 37 50 50
269 255 268 271 245 171 203 88 112 112 120 89 48 125 259 166 178 167 149 133 111 83 66 50 38 29 25 23 24 21 30 36 26 27 37 49 56 62 53 53 53 45 40 43
251 266 226 232 297 138 126 74 62 54 73 80 252 153 246 215 198 175 160 143 119 92 69 50 36 31 28 26 28 27 35 36 29 31 33 37 46 60 62 54 45 38 37 39
329 326 300 179 62 37 81 87 39 8 19 249 269 181 242 228 188 175 164 144 119 98 79 57 40 32 29 27 27 27 36 39 33 36 39 39 44 53 61 55 49 46 39 36
339 314 314 343 166 165 147 134 152 192 215 262 310 234 253 117 108 119 128 128 119 101 81 65 50 38 33 31 30 30 34 38 36 38 39 41 45 52 53 53 54 50 42 36
188 271 306 346 32 128 124 115 150 128 131 186 276 275 287 131 127 126 130 130 123 108 91 75 57 44 39 32 28 30 41 42 41 41 44 47 46 51 53 52 52 51 43 44
169 239 312 327 52 38 110 138 96 112 145 240 280 260 236 195 182 167 159 152 135 116 97 81 64 50 43 38 34 36 43 47 45 47 51 57 52 51 52 54 52 49 46 46
125 165 318 12 48 29 77 82 95 105 147 158 244 265 224 199 181 174 166 153 142 127 113 96 75 57 50 46 44 44 44 47 48 50 53 57 53 52 54 55 51 50 49 48
77 116 299 290 285 219 152 155 146 147 206 174 187 264 307 176 161 154 148 143 135 126 119 107 91 71 57 51 47 47 47 49 48 53 58 57 56 56 56 53 49 51 53 50
82 100 47 348 346 354 61 134 136 124 121 158 184 260 64 108 124 136 142 141 135 130 121 107 90 75 67 61 55 52 49 51 50 55 61 59 55 55 54 52 50 51 54 53
97 105 158 200 230 260 286 216 154 132 154 205 223 239 212 159 148 145 144 142 137 134 127 116 99 83 75 70 63 57 51 53 60 60 61 59 54 53 54 53 52 51 53 54
73 113 225 244 251 237 241 246 203 194 196 200 235 227 228 187 165 153 146 142 141 138 135 127 116 102 92 79 67 63 61 60 64 66 64 60 56 57 58 56 53 52 51 54
45 80 351 305 301 279 261 256 234 216 201 212 233 257 197 130 129 139 149 151 151 148 143 135 128 121 110 96 84 74 67 65 73 75 72 65 65 64 62 60 58 58 54 50
3 73 44 297 317 342 290 262 221 216 204 185 211 214 138 137 151 158 159 157 153 150 145 141 138 131 122 113 102 88 76 70 73 72 72 74 73 71 67 69 66 61 54 54
173 125 126 299 358 262 255 293 180 171 251 197 156 140 147 141 128 129 145 151 151 147 142 138 134 128 118 109 99 90 80 77 75 68 69 76 81 79 74 70 68 63 58 56
175 150 138 137 262 284 301 324 149 174 288 149 137 129 118 115 96 94 128 140 142 138 134 133 132 127 118 114 112 97 85 83 80 74 73 83 90 89 84 77 70 64 66 60
98 113 130 151 208 254 269 296 246 110 287 182 147 147 145 138 144 174 146 128 124 124 126 128 124 116 114 113 111 105 96 87 81 80 83 87 90 90 89 86 79 70 72 70
49 71 155 185 232 267 278 303 41 172 267 187 159 157 155 159 158 138 132 123 125 125 127 126 122 119 121 120 111 105 100 92 90 94 90 85 85 87 90 85 79 85 82 75
202 184 199 170 211 261 323 24 173 233 260 135 144 144 131 117 115 122 127 127 128 126 126 127 123 119 116 119 115 110 104 96 93 93 87 81 77 81 90 87 81 81 86 80
225 201 205 204 222 251 294 270 276 188 148 139 139 133 129 126 129 128 128 130 130 129 128 126 126 119 113 121 124 120 113 103 97 86 80 77 73 68 77 89 93 85 81 86
285 186 225 276 276 298 324 328 347 108 131 131 135 135 135 133 136 132 131 132 130 127 129 128 126 124 122 121 117 121 115 106 97 90 79 75 78 72 64 67 83 98 102 104
254 257 246 269 281 323 351 16 72 87 106 115 116 127 138 137 138 137 136 136 134 130 128 130 131 131 130 122 113 115 116 110 102 96 88 79 80 88 79 67 59 90 109 180
216 200 198 235 232 208 248 186 122 121 128 131 125 120 131 140 139 135 136 135 133 132 129 128 129 130 131 130 126 122 124 120 114 103 97 94 93 89 89 90 65 48 56 78